Year,Month,Day,Hour,Minute,Value (Times are PST for windgust in km/hr)
2013,05,10,00,00,1.60
2013,05,10,00,01,1.60
2013,05,10,00,02,1.60
2013,05,10,00,03,1.60
2013,05,10,00,04,1.60
2013,05,10,00,05,1.60
2013,05,10,00,06,1.60
2013,05,10,00,07,3.20
2013,05,10,00,08,3.20
2013,05,10,00,09,3.20
2013,05,10,00,10,3.20
2013,05,10,00,11,3.20
2013,05,10,00,12,4.80
2013,05,10,00,13,3.20
2013,05,10,00,14,4.80
2013,05,10,00,15,6.40
2013,05,10,00,16,4.80
2013,05,10,00,17,6.40
2013,05,10,00,18,6.40
2013,05,10,00,19,6.40
2013,05,10,00,20,8.10
2013,05,10,00,21,8.10
2013,05,10,00,22,4.80
2013,05,10,00,23,4.80
2013,05,10,00,24,4.80
2013,05,10,00,25,4.80
2013,05,10,00,26,4.80
2013,05,10,00,27,4.80
2013,05,10,00,28,3.20
2013,05,10,00,29,3.20
2013,05,10,00,30,6.40
2013,05,10,00,31,4.80
2013,05,10,00,32,4.80
2013,05,10,00,33,4.80
2013,05,10,00,34,4.80
2013,05,10,00,35,3.20
2013,05,10,00,36,3.20
2013,05,10,00,37,3.20
2013,05,10,00,38,3.20
2013,05,10,00,39,4.80
2013,05,10,00,40,3.20
2013,05,10,00,41,4.80
2013,05,10,00,42,4.80
2013,05,10,00,43,4.80
2013,05,10,00,44,4.80
2013,05,10,00,45,3.20
2013,05,10,00,46,4.80
2013,05,10,00,47,4.80
2013,05,10,00,48,4.80
2013,05,10,00,49,4.80
2013,05,10,00,50,4.80
2013,05,10,00,51,4.80
2013,05,10,00,52,4.80
2013,05,10,00,53,3.20
2013,05,10,00,54,4.80
2013,05,10,00,55,4.80
2013,05,10,00,56,4.80
2013,05,10,00,57,3.20
2013,05,10,00,59,1.60
2013,05,10,01,00,3.20
2013,05,10,01,01,1.60
2013,05,10,01,02,3.20
2013,05,10,01,03,1.60
2013,05,10,01,04,1.60
2013,05,10,01,05,1.60
2013,05,10,01,08,1.60
2013,05,10,01,11,1.60
2013,05,10,01,15,1.60
2013,05,10,01,16,1.60
2013,05,10,01,17,3.20
2013,05,10,01,18,3.20
2013,05,10,01,19,1.60
2013,05,10,01,21,1.60
2013,05,10,01,22,1.60
2013,05,10,01,23,3.20
2013,05,10,01,24,4.80
2013,05,10,01,25,3.20
2013,05,10,01,26,3.20
2013,05,10,01,27,8.10
2013,05,10,01,28,6.40
2013,05,10,01,29,4.80
2013,05,10,01,30,4.80
2013,05,10,01,31,3.20
2013,05,10,01,32,4.80
2013,05,10,01,33,4.80
2013,05,10,01,34,4.80
2013,05,10,01,35,3.20
2013,05,10,01,36,1.60
2013,05,10,01,37,1.60
2013,05,10,01,38,6.40
2013,05,10,01,39,4.80
2013,05,10,01,40,6.40
2013,05,10,01,41,6.40
2013,05,10,01,42,8.10
2013,05,10,01,43,4.80
2013,05,10,01,44,4.80
2013,05,10,01,45,4.80
2013,05,10,01,46,3.20
2013,05,10,01,47,4.80
2013,05,10,01,48,3.20
2013,05,10,01,49,4.80
2013,05,10,01,50,4.80
2013,05,10,01,51,6.40
2013,05,10,01,52,8.10
2013,05,10,01,53,3.20
2013,05,10,01,54,1.60
2013,05,10,01,55,1.60
2013,05,10,01,56,3.20
2013,05,10,01,57,3.20
2013,05,10,01,58,3.20
2013,05,10,01,59,4.80
2013,05,10,02,00,4.80
2013,05,10,02,01,3.20
2013,05,10,02,02,8.10
2013,05,10,02,03,9.60
2013,05,10,02,04,8.10
2013,05,10,02,05,8.10
2013,05,10,02,06,6.40
2013,05,10,02,07,6.40
2013,05,10,02,08,6.40
2013,05,10,02,09,8.10
2013,05,10,02,10,9.60
2013,05,10,02,11,8.10
2013,05,10,02,12,6.40
2013,05,10,02,13,6.40
2013,05,10,02,14,6.40
2013,05,10,02,15,4.80
2013,05,10,02,16,3.20
2013,05,10,02,17,3.20
2013,05,10,02,18,1.60
2013,05,10,02,24,1.60
2013,05,10,02,28,1.60
2013,05,10,02,29,1.60
2013,05,10,02,36,1.60
2013,05,10,02,37,1.60
2013,05,10,02,40,1.60
2013,05,10,02,46,1.60
2013,05,10,02,47,1.60
2013,05,10,02,48,1.60
2013,05,10,02,49,1.60
2013,05,10,02,50,1.60
2013,05,10,02,51,1.60
2013,05,10,02,52,1.60
2013,05,10,02,53,1.60
2013,05,10,02,54,3.20
2013,05,10,02,55,3.20
2013,05,10,02,56,1.60
2013,05,10,02,57,1.60
2013,05,10,02,58,1.60
2013,05,10,02,59,3.20
2013,05,10,03,00,3.20
2013,05,10,03,01,3.20
2013,05,10,03,02,3.20
2013,05,10,03,03,4.80
2013,05,10,03,04,4.80
2013,05,10,03,05,4.80
2013,05,10,03,06,3.20
2013,05,10,03,07,3.20
2013,05,10,03,08,3.20
2013,05,10,03,09,1.60
2013,05,10,03,10,4.80
2013,05,10,03,11,3.20
2013,05,10,03,12,4.80
2013,05,10,03,13,3.20
2013,05,10,03,14,3.20
2013,05,10,03,15,3.20
2013,05,10,03,16,3.20
2013,05,10,03,17,1.60
2013,05,10,03,22,3.20
2013,05,10,03,23,1.60
2013,05,10,03,24,1.60
2013,05,10,03,35,1.60
2013,05,10,03,36,1.60
2013,05,10,03,37,3.20
2013,05,10,03,38,3.20
2013,05,10,03,39,3.20
2013,05,10,03,40,3.20
2013,05,10,03,41,3.20
2013,05,10,03,42,3.20
2013,05,10,03,43,3.20
2013,05,10,03,44,3.20
2013,05,10,03,45,3.20
2013,05,10,03,46,3.20
2013,05,10,03,47,1.60
2013,05,10,03,48,3.20
2013,05,10,03,49,3.20
2013,05,10,03,50,3.20
2013,05,10,03,51,4.80
2013,05,10,03,52,4.80
2013,05,10,03,53,4.80
2013,05,10,03,54,3.20
2013,05,10,03,55,4.80
2013,05,10,03,56,4.80
2013,05,10,03,57,4.80
2013,05,10,03,58,4.80
2013,05,10,03,59,4.80
2013,05,10,04,00,3.20
2013,05,10,04,01,3.20
2013,05,10,04,02,4.80
2013,05,10,04,03,4.80
2013,05,10,04,04,3.20
2013,05,10,04,05,4.80
2013,05,10,04,06,6.40
2013,05,10,04,07,4.80
2013,05,10,04,08,3.20
2013,05,10,04,09,3.20
2013,05,10,04,10,1.60
2013,05,10,04,11,3.20
2013,05,10,04,12,3.20
2013,05,10,04,13,3.20
2013,05,10,04,14,3.20
2013,05,10,04,15,4.80
2013,05,10,04,16,4.80
2013,05,10,04,17,3.20
2013,05,10,04,18,1.60
2013,05,10,04,19,3.20
2013,05,10,04,20,3.20
2013,05,10,04,21,3.20
2013,05,10,04,22,6.40
2013,05,10,04,23,4.80
2013,05,10,04,24,4.80
2013,05,10,04,25,3.20
2013,05,10,04,26,4.80
2013,05,10,04,27,4.80
2013,05,10,04,28,4.80
2013,05,10,04,29,4.80
2013,05,10,04,30,4.80
2013,05,10,04,31,4.80
2013,05,10,04,32,1.60
2013,05,10,04,33,3.20
2013,05,10,04,34,1.60
2013,05,10,04,35,1.60
2013,05,10,04,36,1.60
2013,05,10,04,39,1.60
2013,05,10,04,40,1.60
2013,05,10,04,42,1.60
2013,05,10,04,43,1.60
2013,05,10,04,44,3.20
2013,05,10,04,45,4.80
2013,05,10,04,46,3.20
2013,05,10,04,50,1.60
2013,05,10,04,51,3.20
2013,05,10,04,52,4.80
2013,05,10,04,53,3.20
2013,05,10,04,54,1.60
2013,05,10,04,55,1.60
2013,05,10,04,56,3.20
2013,05,10,04,57,3.20
2013,05,10,04,58,1.60
2013,05,10,05,01,1.60
2013,05,10,05,02,1.60
2013,05,10,05,03,3.20
2013,05,10,05,04,1.60
2013,05,10,05,05,3.20
2013,05,10,05,06,1.60
2013,05,10,05,07,1.60
2013,05,10,05,09,1.60
2013,05,10,05,10,3.20
2013,05,10,05,11,3.20
2013,05,10,05,12,3.20
2013,05,10,05,13,3.20
2013,05,10,05,14,3.20
2013,05,10,05,15,1.60
2013,05,10,05,16,1.60
2013,05,10,05,17,3.20
2013,05,10,05,18,3.20
2013,05,10,05,19,1.60
2013,05,10,05,20,3.20
2013,05,10,05,21,1.60
2013,05,10,05,22,1.60
2013,05,10,05,23,1.60
2013,05,10,05,24,3.20
2013,05,10,05,25,3.20
2013,05,10,05,26,4.80
2013,05,10,05,27,4.80
2013,05,10,05,28,4.80
2013,05,10,05,29,4.80
2013,05,10,05,30,4.80
2013,05,10,05,31,4.80
2013,05,10,05,32,6.40
2013,05,10,05,33,6.40
2013,05,10,05,34,8.10
2013,05,10,05,35,8.10
2013,05,10,05,36,8.10
2013,05,10,05,37,8.10
2013,05,10,05,38,8.10
2013,05,10,05,39,6.40
2013,05,10,05,40,6.40
2013,05,10,05,41,4.80
2013,05,10,05,42,3.20
2013,05,10,05,43,1.60
2013,05,10,05,44,1.60
2013,05,10,05,45,1.60
2013,05,10,05,46,1.60
2013,05,10,05,47,1.60
2013,05,10,05,57,1.60
2013,05,10,05,59,1.60
2013,05,10,06,00,1.60
2013,05,10,06,01,1.60
2013,05,10,06,02,3.20
2013,05,10,06,03,3.20
2013,05,10,06,04,3.20
2013,05,10,06,05,3.20
2013,05,10,06,06,3.20
2013,05,10,06,07,3.20
2013,05,10,06,08,4.80
2013,05,10,06,09,4.80
2013,05,10,06,10,4.80
2013,05,10,06,11,3.20
2013,05,10,06,12,3.20
2013,05,10,06,13,3.20
2013,05,10,06,14,4.80
2013,05,10,06,15,4.80
2013,05,10,06,16,3.20
2013,05,10,06,17,4.80
2013,05,10,06,18,3.20
2013,05,10,06,19,3.20
2013,05,10,06,20,1.60
2013,05,10,06,21,1.60
2013,05,10,06,22,1.60
2013,05,10,06,23,1.60
2013,05,10,06,24,3.20
2013,05,10,06,25,1.60
2013,05,10,06,26,1.60
2013,05,10,06,27,1.60
2013,05,10,06,28,3.20
2013,05,10,06,29,3.20
2013,05,10,06,30,6.40
2013,05,10,06,31,6.40
2013,05,10,06,32,6.40
2013,05,10,06,33,4.80
2013,05,10,06,34,6.40
2013,05,10,06,35,6.40
2013,05,10,06,36,4.80
2013,05,10,06,37,4.80
2013,05,10,06,38,3.20
2013,05,10,06,39,4.80
2013,05,10,06,40,4.80
2013,05,10,06,41,3.20
2013,05,10,06,42,6.40
2013,05,10,06,43,6.40
2013,05,10,06,44,6.40
2013,05,10,06,45,3.20
2013,05,10,06,46,6.40
2013,05,10,06,47,8.10
2013,05,10,06,48,4.80
2013,05,10,06,49,8.10
2013,05,10,06,50,6.40
2013,05,10,06,51,9.60
2013,05,10,06,52,8.10
2013,05,10,06,53,8.10
2013,05,10,06,54,9.60
2013,05,10,06,55,8.10
2013,05,10,06,56,6.40
2013,05,10,06,57,6.40
2013,05,10,06,58,6.40
2013,05,10,06,59,11.30
2013,05,10,07,00,9.60
2013,05,10,07,01,9.60
2013,05,10,07,02,6.40
2013,05,10,07,03,6.40
2013,05,10,07,04,6.40
2013,05,10,07,05,3.20
2013,05,10,07,06,3.20
2013,05,10,07,07,3.20
2013,05,10,07,08,3.20
2013,05,10,07,09,4.80
2013,05,10,07,10,3.20
2013,05,10,07,11,3.20
2013,05,10,07,12,3.20
2013,05,10,07,13,3.20
2013,05,10,07,14,3.20
2013,05,10,07,15,1.60
2013,05,10,07,16,3.20
2013,05,10,07,17,1.60
2013,05,10,07,18,1.60
2013,05,10,07,20,3.20
2013,05,10,07,21,1.60
2013,05,10,07,24,1.60
2013,05,10,07,26,1.60
2013,05,10,07,27,1.60
2013,05,10,07,28,1.60
2013,05,10,07,29,1.60
2013,05,10,07,30,1.60
2013,05,10,07,31,3.20
2013,05,10,07,32,3.20
2013,05,10,07,33,3.20
2013,05,10,07,34,3.20
2013,05,10,07,35,3.20
2013,05,10,07,36,1.60
2013,05,10,07,37,3.20
2013,05,10,07,38,3.20
2013,05,10,07,39,3.20
2013,05,10,07,40,4.80
2013,05,10,07,41,4.80
2013,05,10,07,42,4.80
2013,05,10,07,43,6.40
2013,05,10,07,44,4.80
2013,05,10,07,45,4.80
2013,05,10,07,46,4.80
2013,05,10,07,47,6.40
2013,05,10,07,48,6.40
2013,05,10,07,49,6.40
2013,05,10,07,50,6.40
2013,05,10,07,51,6.40
2013,05,10,07,52,6.40
2013,05,10,07,53,6.40
2013,05,10,07,54,6.40
2013,05,10,07,55,8.10
2013,05,10,07,56,6.40
2013,05,10,07,57,8.10
2013,05,10,07,58,9.60
2013,05,10,07,59,6.40
2013,05,10,08,00,3.20
2013,05,10,08,01,4.80
2013,05,10,08,02,4.80
2013,05,10,08,03,6.40
2013,05,10,08,04,6.40
2013,05,10,08,05,3.20
2013,05,10,08,06,4.80
2013,05,10,08,07,4.80
2013,05,10,08,08,6.40
2013,05,10,08,09,4.80
2013,05,10,08,10,8.10
2013,05,10,08,11,8.10
2013,05,10,08,12,6.40
2013,05,10,08,13,6.40
2013,05,10,08,14,8.10
2013,05,10,08,15,8.10
2013,05,10,08,16,8.10
2013,05,10,08,17,8.10
2013,05,10,08,18,4.80
2013,05,10,08,19,6.40
2013,05,10,08,20,4.80
2013,05,10,08,21,6.40
2013,05,10,08,22,4.80
2013,05,10,08,23,4.80
2013,05,10,08,24,4.80
2013,05,10,08,25,4.80
2013,05,10,08,26,6.40
2013,05,10,08,27,6.40
2013,05,10,08,28,4.80
2013,05,10,08,29,6.40
2013,05,10,08,30,4.80
2013,05,10,08,31,3.20
2013,05,10,08,32,4.80
2013,05,10,08,33,6.40
2013,05,10,08,34,4.80
2013,05,10,08,35,4.80
2013,05,10,08,36,3.20
2013,05,10,08,37,4.80
2013,05,10,08,38,3.20
2013,05,10,08,39,3.20
2013,05,10,08,40,3.20
2013,05,10,08,41,4.80
2013,05,10,08,42,4.80
2013,05,10,08,43,4.80
2013,05,10,08,44,4.80
2013,05,10,08,45,3.20
2013,05,10,08,46,1.60
2013,05,10,08,47,1.60
2013,05,10,08,48,3.20
2013,05,10,08,49,1.60
2013,05,10,08,50,1.60
2013,05,10,08,51,4.80
2013,05,10,08,52,6.40
2013,05,10,08,53,4.80
2013,05,10,08,54,4.80
2013,05,10,08,55,4.80
2013,05,10,08,56,4.80
2013,05,10,08,57,3.20
2013,05,10,08,58,1.60
2013,05,10,08,59,1.60
2013,05,10,09,02,1.60
2013,05,10,09,03,1.60
2013,05,10,09,04,1.60
2013,05,10,09,05,1.60
2013,05,10,09,06,1.60
2013,05,10,09,07,3.20
2013,05,10,09,08,1.60
2013,05,10,09,09,1.60
2013,05,10,09,11,1.60
2013,05,10,09,12,9.60
2013,05,10,09,13,4.80
2013,05,10,09,14,6.40
2013,05,10,09,15,3.20
2013,05,10,09,16,1.60
2013,05,10,09,17,1.60
2013,05,10,09,18,1.60
2013,05,10,09,19,3.20
2013,05,10,09,20,3.20
2013,05,10,09,21,4.80
2013,05,10,09,22,3.20
2013,05,10,09,23,3.20
2013,05,10,09,24,3.20
2013,05,10,09,25,3.20
2013,05,10,09,26,3.20
2013,05,10,09,27,4.80
2013,05,10,09,28,4.80
2013,05,10,09,29,4.80
2013,05,10,09,30,3.20
2013,05,10,09,31,3.20
2013,05,10,09,32,3.20
2013,05,10,09,33,3.20
2013,05,10,09,34,1.60
2013,05,10,09,35,1.60
2013,05,10,09,36,3.20
2013,05,10,09,37,4.80
2013,05,10,09,38,3.20
2013,05,10,09,39,4.80
2013,05,10,09,40,3.20
2013,05,10,09,41,3.20
2013,05,10,09,42,4.80
2013,05,10,09,43,4.80
2013,05,10,09,44,4.80
2013,05,10,09,45,4.80
2013,05,10,09,46,4.80
2013,05,10,09,47,6.40
2013,05,10,09,48,9.60
2013,05,10,09,49,11.30
2013,05,10,09,50,8.10
2013,05,10,09,51,8.10
2013,05,10,09,52,11.30
2013,05,10,09,53,11.30
2013,05,10,09,54,11.30
2013,05,10,09,55,12.90
2013,05,10,09,56,8.10
2013,05,10,09,57,11.30
2013,05,10,09,58,9.60
2013,05,10,09,59,11.30
2013,05,10,10,00,12.90
2013,05,10,10,01,11.30
2013,05,10,10,02,11.30
2013,05,10,10,03,12.90
2013,05,10,10,04,11.30
2013,05,10,10,05,9.60
2013,05,10,10,06,11.30
2013,05,10,10,07,9.60
2013,05,10,10,08,12.90
2013,05,10,10,09,9.60
2013,05,10,10,10,9.60
2013,05,10,10,11,11.30
2013,05,10,10,12,12.90
2013,05,10,10,13,12.90
2013,05,10,10,14,9.60
2013,05,10,10,15,11.30
2013,05,10,10,16,12.90
2013,05,10,10,17,9.60
2013,05,10,10,18,12.90
2013,05,10,10,19,12.90
2013,05,10,10,20,9.60
2013,05,10,10,21,9.60
2013,05,10,10,22,9.60
2013,05,10,10,23,8.10
2013,05,10,10,24,9.60
2013,05,10,10,25,9.60
2013,05,10,10,26,12.90
2013,05,10,10,27,9.60
2013,05,10,10,28,8.10
2013,05,10,10,29,6.40
2013,05,10,10,30,8.10
2013,05,10,10,31,9.60
2013,05,10,10,32,8.10
2013,05,10,10,33,9.60
2013,05,10,10,34,8.10
2013,05,10,10,35,8.10
2013,05,10,10,36,8.10
2013,05,10,10,37,8.10
2013,05,10,10,38,8.10
2013,05,10,10,39,8.10
2013,05,10,10,40,11.30
2013,05,10,10,41,8.10
2013,05,10,10,42,8.10
2013,05,10,10,43,8.10
2013,05,10,10,44,9.60
2013,05,10,10,45,11.30
2013,05,10,10,46,9.60
2013,05,10,10,47,9.60
2013,05,10,10,48,9.60
2013,05,10,10,49,9.60
2013,05,10,10,50,9.60
2013,05,10,10,51,8.10
2013,05,10,10,52,9.60
2013,05,10,10,53,9.60
2013,05,10,10,54,9.60
2013,05,10,10,55,9.60
2013,05,10,10,56,11.30
2013,05,10,10,57,9.60
2013,05,10,10,58,12.90
2013,05,10,10,59,11.30
2013,05,10,11,00,11.30
2013,05,10,11,01,9.60
2013,05,10,11,02,9.60
2013,05,10,11,03,12.90
2013,05,10,11,04,11.30
2013,05,10,11,05,8.10
2013,05,10,11,06,11.30
2013,05,10,11,07,11.30
2013,05,10,11,08,12.90
2013,05,10,11,09,11.30
2013,05,10,11,10,12.90
2013,05,10,11,11,9.60
2013,05,10,11,12,9.60
2013,05,10,11,13,11.30
2013,05,10,11,14,11.30
2013,05,10,11,15,11.30
2013,05,10,11,16,11.30
2013,05,10,11,17,12.90
2013,05,10,11,18,12.90
2013,05,10,11,19,12.90
2013,05,10,11,20,14.50
2013,05,10,11,21,12.90
2013,05,10,11,22,11.30
2013,05,10,11,23,11.30
2013,05,10,11,24,11.30
2013,05,10,11,25,11.30
2013,05,10,11,26,12.90
2013,05,10,11,27,14.50
2013,05,10,11,28,12.90
2013,05,10,11,29,12.90
2013,05,10,11,30,12.90
2013,05,10,11,31,9.60
2013,05,10,11,32,11.30
2013,05,10,11,33,11.30
2013,05,10,11,34,11.30
2013,05,10,11,35,11.30
2013,05,10,11,36,12.90
2013,05,10,11,37,9.60
2013,05,10,11,38,11.30
2013,05,10,11,39,9.60
2013,05,10,11,40,9.60
2013,05,10,11,41,12.90
2013,05,10,11,42,12.90
2013,05,10,11,43,12.90
2013,05,10,11,44,12.90
2013,05,10,11,45,12.90
2013,05,10,11,46,12.90
2013,05,10,11,47,12.90
2013,05,10,11,48,11.30
2013,05,10,11,49,9.60
2013,05,10,11,50,11.30
2013,05,10,11,51,9.60
2013,05,10,11,52,9.60
2013,05,10,11,53,8.10
2013,05,10,11,54,9.60
2013,05,10,11,55,9.60
2013,05,10,11,56,11.30
2013,05,10,11,57,11.30
2013,05,10,11,58,9.60
2013,05,10,11,59,8.10
2013,05,10,12,00,9.60
2013,05,10,12,01,9.60
2013,05,10,12,02,8.10
2013,05,10,12,03,11.30
2013,05,10,12,04,12.90
2013,05,10,12,05,8.10
2013,05,10,12,06,9.60
2013,05,10,12,07,9.60
2013,05,10,12,08,8.10
2013,05,10,12,09,8.10
2013,05,10,12,10,8.10
2013,05,10,12,11,6.40
2013,05,10,12,12,6.40
2013,05,10,12,13,8.10
2013,05,10,12,14,8.10
2013,05,10,12,15,8.10
2013,05,10,12,16,9.60
2013,05,10,12,17,8.10
2013,05,10,12,18,9.60
2013,05,10,12,19,8.10
2013,05,10,12,20,8.10
2013,05,10,12,21,6.40
2013,05,10,12,22,8.10
2013,05,10,12,23,8.10
2013,05,10,12,24,8.10
2013,05,10,12,25,8.10
2013,05,10,12,26,9.60
2013,05,10,12,27,11.30
2013,05,10,12,28,8.10
2013,05,10,12,29,9.60
2013,05,10,12,30,9.60
2013,05,10,12,31,6.40
2013,05,10,12,32,8.10
2013,05,10,12,33,8.10
2013,05,10,12,34,9.60
2013,05,10,12,35,8.10
2013,05,10,12,36,9.60
2013,05,10,12,37,8.10
2013,05,10,12,38,8.10
2013,05,10,12,39,8.10
2013,05,10,12,40,9.60
2013,05,10,12,41,9.60
2013,05,10,12,42,9.60
2013,05,10,12,43,11.30
2013,05,10,12,44,9.60
2013,05,10,12,45,8.10
2013,05,10,12,46,6.40
2013,05,10,12,47,6.40
2013,05,10,12,48,4.80
2013,05,10,12,49,8.10
2013,05,10,12,50,9.60
2013,05,10,12,51,8.10
2013,05,10,12,52,8.10
2013,05,10,12,53,8.10
2013,05,10,12,54,8.10
2013,05,10,12,55,9.60
2013,05,10,12,56,11.30
2013,05,10,12,57,8.10
2013,05,10,12,58,9.60
2013,05,10,12,59,9.60
2013,05,10,13,00,11.30
2013,05,10,13,01,11.30
2013,05,10,13,02,9.60
2013,05,10,13,03,9.60
2013,05,10,13,04,11.30
2013,05,10,13,05,11.30
2013,05,10,13,06,11.30
2013,05,10,13,07,9.60
2013,05,10,13,08,8.10
2013,05,10,13,09,8.10
2013,05,10,13,10,6.40
2013,05,10,13,11,8.10
2013,05,10,13,12,9.60
2013,05,10,13,13,12.90
2013,05,10,13,14,12.90
2013,05,10,13,15,16.10
2013,05,10,13,16,12.90
2013,05,10,13,17,12.90
2013,05,10,13,18,11.30
2013,05,10,13,19,11.30
2013,05,10,13,20,11.30
2013,05,10,13,21,11.30
2013,05,10,13,22,11.30
2013,05,10,13,23,11.30
2013,05,10,13,24,12.90
2013,05,10,13,25,12.90
2013,05,10,13,26,11.30
2013,05,10,13,27,9.60
2013,05,10,13,28,9.60
2013,05,10,13,29,11.30
2013,05,10,13,30,8.10
2013,05,10,13,31,9.60
2013,05,10,13,32,6.40
2013,05,10,13,33,11.30
2013,05,10,13,34,12.90
2013,05,10,13,35,11.30
2013,05,10,13,36,11.30
2013,05,10,13,37,12.90
2013,05,10,13,38,14.50
2013,05,10,13,39,9.60
2013,05,10,13,40,12.90
2013,05,10,13,41,11.30
2013,05,10,13,42,12.90
2013,05,10,13,43,11.30
2013,05,10,13,44,9.60
2013,05,10,13,45,11.30
2013,05,10,13,46,11.30
2013,05,10,13,47,11.30
2013,05,10,13,48,11.30
2013,05,10,13,49,9.60
2013,05,10,13,50,9.60
2013,05,10,13,51,8.10
2013,05,10,13,52,9.60
2013,05,10,13,53,11.30
2013,05,10,13,54,12.90
2013,05,10,13,55,11.30
2013,05,10,13,56,9.60
2013,05,10,13,57,11.30
2013,05,10,13,58,8.10
2013,05,10,13,59,8.10
2013,05,10,14,00,9.60
2013,05,10,14,01,12.90
2013,05,10,14,02,12.90
2013,05,10,14,03,12.90
2013,05,10,14,04,14.50
2013,05,10,14,05,11.30
2013,05,10,14,06,11.30
2013,05,10,14,07,12.90
2013,05,10,14,08,14.50
2013,05,10,14,09,16.10
2013,05,10,14,10,14.50
2013,05,10,14,11,17.70
2013,05,10,14,12,17.70
2013,05,10,14,13,16.10
2013,05,10,14,14,12.90
2013,05,10,14,15,17.70
2013,05,10,14,16,17.70
2013,05,10,14,17,16.10
2013,05,10,14,18,14.50
2013,05,10,14,19,16.10
2013,05,10,14,20,14.50
2013,05,10,14,21,16.10
2013,05,10,14,22,17.70
2013,05,10,14,23,17.70
2013,05,10,14,24,14.50
2013,05,10,14,25,16.10
2013,05,10,14,26,14.50
2013,05,10,14,27,12.90
2013,05,10,14,28,14.50
2013,05,10,14,29,12.90
2013,05,10,14,30,14.50
2013,05,10,14,31,16.10
2013,05,10,14,32,12.90
2013,05,10,14,33,11.30
2013,05,10,14,34,11.30
2013,05,10,14,35,14.50
2013,05,10,14,36,16.10
2013,05,10,14,37,14.50
2013,05,10,14,38,16.10
2013,05,10,14,39,12.90
2013,05,10,14,40,12.90
2013,05,10,14,41,12.90
2013,05,10,14,42,12.90
2013,05,10,14,43,14.50
2013,05,10,14,44,16.10
2013,05,10,14,45,14.50
2013,05,10,14,46,11.30
2013,05,10,14,47,12.90
2013,05,10,14,48,12.90
2013,05,10,14,49,14.50
2013,05,10,14,50,16.10
2013,05,10,14,51,11.30
2013,05,10,14,52,14.50
2013,05,10,14,53,11.30
2013,05,10,14,54,12.90
2013,05,10,14,55,12.90
2013,05,10,14,56,12.90
2013,05,10,14,57,14.50
2013,05,10,14,58,16.10
2013,05,10,14,59,12.90
2013,05,10,15,00,11.30
2013,05,10,15,01,14.50
2013,05,10,15,02,11.30
2013,05,10,15,03,12.90
2013,05,10,15,04,12.90
2013,05,10,15,05,14.50
2013,05,10,15,06,12.90
2013,05,10,15,07,16.10
2013,05,10,15,08,14.50
2013,05,10,15,09,14.50
2013,05,10,15,10,12.90
2013,05,10,15,11,12.90
2013,05,10,15,12,14.50
2013,05,10,15,13,11.30
2013,05,10,15,14,11.30
2013,05,10,15,15,12.90
2013,05,10,15,16,14.50
2013,05,10,15,17,12.90
2013,05,10,15,18,14.50
2013,05,10,15,19,14.50
2013,05,10,15,20,14.50
2013,05,10,15,21,11.30
2013,05,10,15,22,11.30
2013,05,10,15,23,12.90
2013,05,10,15,24,12.90
2013,05,10,15,25,11.30
2013,05,10,15,26,12.90
2013,05,10,15,27,12.90
2013,05,10,15,28,11.30
2013,05,10,15,29,14.50
2013,05,10,15,30,12.90
2013,05,10,15,31,12.90
2013,05,10,15,32,12.90
2013,05,10,15,33,11.30
2013,05,10,15,34,12.90
2013,05,10,15,35,14.50
2013,05,10,15,36,12.90
2013,05,10,15,37,12.90
2013,05,10,15,38,9.60
2013,05,10,15,39,9.60
2013,05,10,15,40,9.60
2013,05,10,15,41,8.10
2013,05,10,15,42,9.60
2013,05,10,15,43,12.90
2013,05,10,15,44,12.90
2013,05,10,15,45,11.30
2013,05,10,15,46,11.30
2013,05,10,15,47,11.30
2013,05,10,15,48,14.50
2013,05,10,15,49,12.90
2013,05,10,15,50,14.50
2013,05,10,15,51,12.90
2013,05,10,15,52,14.50
2013,05,10,15,53,16.10
2013,05,10,15,54,12.90
2013,05,10,15,55,14.50
2013,05,10,15,56,14.50
2013,05,10,15,57,14.50
2013,05,10,15,58,14.50
2013,05,10,15,59,16.10
2013,05,10,16,00,14.50
2013,05,10,16,01,14.50
2013,05,10,16,02,14.50
2013,05,10,16,03,16.10
2013,05,10,16,04,12.90
2013,05,10,16,05,16.10
2013,05,10,16,06,16.10
2013,05,10,16,07,22.50
2013,05,10,16,08,19.30
2013,05,10,16,09,17.70
2013,05,10,16,10,20.90
2013,05,10,16,11,20.90
2013,05,10,16,12,20.90
2013,05,10,16,13,17.70
2013,05,10,16,14,20.90
2013,05,10,16,15,20.90
2013,05,10,16,16,24.20
2013,05,10,16,17,22.50
2013,05,10,16,18,19.30
2013,05,10,16,19,20.90
2013,05,10,16,20,16.10
2013,05,10,16,21,17.70
2013,05,10,16,22,14.50
2013,05,10,16,23,14.50
2013,05,10,16,24,12.90
2013,05,10,16,25,12.90
2013,05,10,16,26,11.30
2013,05,10,16,27,14.50
2013,05,10,16,28,12.90
2013,05,10,16,29,12.90
2013,05,10,16,30,14.50
2013,05,10,16,31,12.90
2013,05,10,16,32,11.30
2013,05,10,16,33,9.60
2013,05,10,16,34,12.90
2013,05,10,16,35,12.90
2013,05,10,16,36,12.90
2013,05,10,16,37,12.90
2013,05,10,16,38,14.50
2013,05,10,16,39,17.70
2013,05,10,16,40,16.10
2013,05,10,16,41,14.50
2013,05,10,16,42,12.90
2013,05,10,16,43,12.90
2013,05,10,16,44,12.90
2013,05,10,16,45,14.50
2013,05,10,16,46,11.30
2013,05,10,16,47,12.90
2013,05,10,16,48,8.10
2013,05,10,16,49,9.60
2013,05,10,16,50,11.30
2013,05,10,16,51,16.10
2013,05,10,16,52,12.90
2013,05,10,16,53,14.50
2013,05,10,16,54,11.30
2013,05,10,16,55,11.30
2013,05,10,16,56,12.90
2013,05,10,16,57,12.90
2013,05,10,16,58,12.90
2013,05,10,16,59,16.10
2013,05,10,17,00,11.30
2013,05,10,17,01,9.60
2013,05,10,17,02,11.30
2013,05,10,17,03,12.90
2013,05,10,17,04,8.10
2013,05,10,17,05,12.90
2013,05,10,17,06,12.90
2013,05,10,17,07,11.30
2013,05,10,17,08,11.30
2013,05,10,17,09,11.30
2013,05,10,17,10,6.40
2013,05,10,17,11,6.40
2013,05,10,17,12,9.60
2013,05,10,17,13,11.30
2013,05,10,17,14,8.10
2013,05,10,17,15,6.40
2013,05,10,17,16,8.10
2013,05,10,17,17,8.10
2013,05,10,17,18,6.40
2013,05,10,17,19,6.40
2013,05,10,17,20,4.80
2013,05,10,17,21,6.40
2013,05,10,17,22,6.40
2013,05,10,17,23,6.40
2013,05,10,17,24,4.80
2013,05,10,17,25,6.40
2013,05,10,17,26,4.80
2013,05,10,17,27,6.40
2013,05,10,17,28,6.40
2013,05,10,17,29,6.40
2013,05,10,17,30,6.40
2013,05,10,17,31,8.10
2013,05,10,17,32,8.10
2013,05,10,17,33,9.60
2013,05,10,17,34,8.10
2013,05,10,17,35,9.60
2013,05,10,17,36,9.60
2013,05,10,17,37,12.90
2013,05,10,17,38,12.90
2013,05,10,17,39,12.90
2013,05,10,17,40,12.90
2013,05,10,17,41,11.30
2013,05,10,17,42,11.30
2013,05,10,17,43,9.60
2013,05,10,17,44,11.30
2013,05,10,17,45,14.50
2013,05,10,17,46,12.90
2013,05,10,17,47,12.90
2013,05,10,17,48,12.90
2013,05,10,17,49,17.70
2013,05,10,17,50,17.70
2013,05,10,17,51,17.70
2013,05,10,17,52,17.70
2013,05,10,17,53,14.50
2013,05,10,17,54,12.90
2013,05,10,17,55,16.10
2013,05,10,17,56,8.10
2013,05,10,17,57,9.60
2013,05,10,17,58,8.10
2013,05,10,17,59,11.30
2013,05,10,18,00,11.30
2013,05,10,18,01,9.60
2013,05,10,18,02,12.90
2013,05,10,18,03,12.90
2013,05,10,18,04,11.30
2013,05,10,18,05,14.50
2013,05,10,18,06,16.10
2013,05,10,18,07,9.60
2013,05,10,18,08,17.70
2013,05,10,18,09,14.50
2013,05,10,18,10,14.50
2013,05,10,18,11,16.10
2013,05,10,18,12,11.30
2013,05,10,18,13,14.50
2013,05,10,18,14,14.50
2013,05,10,18,15,14.50
2013,05,10,18,16,14.50
2013,05,10,18,17,22.50
2013,05,10,18,18,19.30
2013,05,10,18,19,14.50
2013,05,10,18,20,12.90
2013,05,10,18,21,9.60
2013,05,10,18,22,8.10
2013,05,10,18,23,9.60
2013,05,10,18,24,8.10
2013,05,10,18,25,8.10
2013,05,10,18,26,4.80
2013,05,10,18,27,8.10
2013,05,10,18,28,9.60
2013,05,10,18,29,6.40
2013,05,10,18,30,6.40
2013,05,10,18,31,6.40
2013,05,10,18,32,4.80
2013,05,10,18,33,6.40
2013,05,10,18,34,8.10
2013,05,10,18,35,6.40
2013,05,10,18,36,8.10
2013,05,10,18,37,6.40
2013,05,10,18,38,6.40
2013,05,10,18,39,8.10
2013,05,10,18,40,6.40
2013,05,10,18,41,4.80
2013,05,10,18,42,6.40
2013,05,10,18,43,6.40
2013,05,10,18,44,3.20
2013,05,10,18,45,1.60
2013,05,10,18,46,1.60
2013,05,10,18,47,3.20
2013,05,10,18,48,4.80
2013,05,10,18,49,3.20
2013,05,10,18,50,4.80
2013,05,10,18,51,4.80
2013,05,10,18,52,4.80
2013,05,10,18,53,4.80
2013,05,10,18,54,4.80
2013,05,10,18,55,6.40
2013,05,10,18,56,9.60
2013,05,10,18,57,6.40
2013,05,10,18,58,6.40
2013,05,10,18,59,6.40
2013,05,10,19,00,8.10
2013,05,10,19,01,14.50